Flag for China Weather past 2 weeks in Chengdu, Sichuan, China

Now
79 °F

Passing clouds.


Feels Like: 82 °F
Forecast: 75 / 85 °F
Wind: 8 mph from Southwest

Location: Chengdu Airport

Current Time: Aug 4, 2015 at 1:27:22 AM

Latest Report: Aug 4, 2015 at 12:00 AM


Visibility: N/A

Pressure: 29.71 "Hg

Humidity: 79%

Dew point: 72 °F

Location of ChengduLocation

Historic Weather in Chengdu — Graph

°F

Chengdu temperature yesterday

Maximum temperature yesterday: 93 °F (at 1:00 PM)
Minimum temperature yesterday: 79 °F (at 5:00 AM)
Average temperature yesterday: 85 °F

Past Weeks' High & Low Weather Summary

 TemperatureHumidityPressure
High100 °F (Aug 2, 3:00 PM)94% (Jul 21, 4:00 AM)29.83 "Hg (Jul 21, 4:00 AM)
Low70 °F (Jul 25, 4:00 AM)20% (Jul 27, 4:00 PM)29.59 "Hg (Jul 25, 5:00 PM)
Average84 °F61%29.70 "Hg
* Reported Midnight between Jul 19 and Jul 20 — Midnight between Aug 3 and Aug 4, Chengdu, Weather by CustomWeather, © 2015

Note: Actual official high and low records may vary slightly from our data, if they occured in-between our weather recording intervals... More about our weather records

Advertising

Chengdu weather history for previous 24 hours

 ConditionsComfort  
Time TempWeatherWind HumidityBarometerVisibility
12:00 AM
Tue, Aug 4
79 °FPassing clouds.8 mph79%29.71 "HgN/A
11:00 PM
Mon, Aug 3
81 °FPassing clouds.3 mph70%29.71 "HgN/A
10:00 PM81 °FPassing clouds.1 mph70%29.68 "HgN/A
9:00 PM79 °FPassing clouds.3 mph74%29.65 "HgN/A
8:00 PM79 °FPassing clouds.6 mph74%29.65 "HgN/A
7:00 PM81 °FScattered clouds.6 mph74%29.62 "HgN/A
6:00 PM84 °FSprinkles. Scattered clouds.10 mph66%29.59 "HgN/A
5:00 PM91 °FScattered clouds.10 mph41%29.59 "HgN/A
4:00 PM90 °FScattered clouds.10 mph49%29.59 "HgN/A
3:00 PM90 °FPassing clouds.13 mph52%29.59 "HgN/A
2:00 PM93 °FPassing clouds.8 mph39%29.62 "HgN/A
1:00 PM93 °FPassing clouds.6 mph41%29.62 "HgN/A
12:00 PM91 °FPassing clouds.6 mph44%29.65 "HgN/A
11:00 AM91 °FPassing clouds.3 mph46%29.65 "HgN/A
10:00 AM90 °FSunny.3 mph46%29.65 "Hg10 mi
9:00 AM88 °FPassing clouds.6 mph52%29.65 "HgN/A
8:00 AM82 °FSunny.1 mph70%29.65 "Hg10 mi
7:00 AM81 °FSunny.1 mph70%29.62 "Hg10 mi
6:00 AM79 °FClear.1 mph74%29.62 "Hg10 mi
5:00 AM79 °FPassing clouds.1 mph74%29.62 "HgN/A
4:00 AM81 °FPassing clouds.6 mph70%29.65 "HgN/A
3:00 AM82 °FPassing clouds.3 mph70%29.65 "HgN/A
2:00 AM82 °FThunderstorms. Passing clouds.3 mph74%29.65 "HgN/A
1:00 AM82 °FThunderstorms. Passing clouds.6 mph70%29.65 "HgN/A
Weather by CustomWeather, © 2015

See weather overviewHow to use our weather pages